TimeEST,TemperatureF,Dew PointF,Humidity,Sea Level PressureIn,VisibilityMPH,Wind Direction,Wind SpeedMPH,Gust SpeedMPH,PrecipitationIn,Events,Conditions,WindDirDegrees,DateUTC
12:23 AM,6.8,1.4,79,29.84,3.0,NNW,11.5,-,0.00,Snow,Light Snow,340,2013-01-22 05:23:00
12:48 AM,6.8,-0.4,72,29.83,5.0,NNW,11.5,-,0.00,Snow,Light Snow,340,2013-01-22 05:48:00
12:53 AM,6.1,-0.0,76,29.85,5.0,North,13.8,-,0.00,Snow,Light Snow,350,2013-01-22 05:53:00
1:53 AM,6.1,-0.0,76,29.86,10.0,NW,6.9,-,0.00,,Overcast,320,2013-01-22 06:53:00
2:53 AM,6.1,-0.0,76,29.86,10.0,NW,4.6,-,N/A,,Overcast,320,2013-01-22 07:53:00
3:53 AM,3.9,-0.0,84,29.86,10.0,Calm,Calm,-,N/A,,Mostly Cloudy,0,2013-01-22 08:53:00
4:12 AM,3.2,-0.4,85,29.84,10.0,Calm,Calm,-,N/A,,Scattered Clouds,0,2013-01-22 09:12:00
4:53 AM,1.0,-2.0,87,29.86,10.0,Calm,Calm,-,N/A,,Mostly Cloudy,0,2013-01-22 09:53:00
5:53 AM,1.0,-2.9,83,29.87,10.0,NNW,6.9,-,N/A,,Partly Cloudy,340,2013-01-22 10:53:00
6:53 AM,1.9,-4.0,76,29.90,10.0,North,11.5,-,N/A,,Mostly Cloudy,360,2013-01-22 11:53:00
7:53 AM,1.9,-4.0,76,29.93,9.0,North,9.2,-,N/A,,Scattered Clouds,360,2013-01-22 12:53:00
8:53 AM,1.9,-5.1,72,29.94,10.0,NNE,5.8,-,N/A,,Mostly Cloudy,20,2013-01-22 13:53:00
9:09 AM,1.4,-5.8,72,29.92,10.0,NNE,8.1,-,N/A,,Overcast,20,2013-01-22 14:09:00
9:53 AM,1.9,-5.1,72,29.95,10.0,North,6.9,-,N/A,,Overcast,10,2013-01-22 14:53:00
10:17 AM,1.4,-5.8,72,29.93,9.0,NNE,5.8,-,N/A,,Scattered Clouds,20,2013-01-22 15:17:00
10:53 AM,1.9,-4.0,76,29.95,10.0,NNW,4.6,-,N/A,,Clear,340,2013-01-22 15:53:00
11:53 AM,3.0,-4.0,73,29.94,10.0,North,3.5,-,N/A,,Clear,10,2013-01-22 16:53:00
12:53 PM,7.0,-0.9,70,29.93,10.0,North,5.8,-,N/A,,Mostly Cloudy,350,2013-01-22 17:53:00
1:30 PM,6.8,-0.4,72,29.92,2.0,NNE,4.6,-,0.00,Snow,Light Snow,30,2013-01-22 18:30:00
1:53 PM,7.0,1.0,77,29.95,3.0,Calm,Calm,-,0.00,Snow,Light Snow,0,2013-01-22 18:53:00
2:06 PM,8.6,1.4,73,29.93,1.8,Calm,Calm,-,0.00,Snow,Light Snow,0,2013-01-22 19:06:00
2:11 PM,8.6,1.4,73,29.93,3.0,Calm,Calm,-,0.00,Snow,Light Snow,0,2013-01-22 19:11:00
2:20 PM,8.6,1.4,73,29.93,9.0,Calm,Calm,-,0.00,,Overcast,0,2013-01-22 19:20:00
2:53 PM,10.9,3.0,70,29.97,10.0,NNE,3.5,-,0.00,,Mostly Cloudy,20,2013-01-22 19:53:00
3:53 PM,10.9,-9.0,40,29.99,10.0,Variable,5.8,-,0.00,,Scattered Clouds,0,2013-01-22 20:53:00
4:53 PM,8.1,-11.0,42,30.03,10.0,Variable,5.8,-,N/A,,Clear,0,2013-01-22 21:53:00
5:53 PM,6.1,-11.9,44,30.07,10.0,NW,4.6,16.1,N/A,,Clear,310,2013-01-22 22:53:00
6:53 PM,3.9,-16.1,39,30.09,10.0,WNW,5.8,-,N/A,,Clear,290,2013-01-22 23:53:00
7:53 PM,3.0,-16.1,41,30.09,10.0,NW,5.8,-,N/A,,Overcast,320,2013-01-23 00:53:00
8:53 PM,1.9,-15.0,45,30.10,10.0,NW,4.6,-,N/A,,Mostly Cloudy,310,2013-01-23 01:53:00
9:53 PM,1.0,-13.0,52,30.11,10.0,NW,6.9,-,N/A,,Overcast,320,2013-01-23 02:53:00
10:53 PM,-0.0,-11.9,57,30.13,10.0,Calm,Calm,-,N/A,,Partly Cloudy,0,2013-01-23 03:53:00
11:53 PM,-2.9,-9.9,72,30.13,10.0,NNE,5.8,-,N/A,,Clear,20,2013-01-23 04:53:00